Flag for U.S.A. Weather past 2 weeks in Visalia, California, U.S.A.

Now
70 °F

Sunny.


Feels Like: 70 °F
Forecast: 53 / 77 °F
Wind: 6 mph from Southeast

Location: Visalia Municipal

Current Time: Oct 25, 2014 at 10:49:32 AM

Latest Report: Oct 25, 2014 at 10:35 AM


Visibility: 9 mi

Pressure: 30.08 "Hg

Humidity: 50%

Dew point: 50 °F

Location of VisaliaLocation

Historic Weather in Visalia — Graph

°F

Visalia temperature yesterday

Maximum temperature yesterday: 84 °F (at 3:15 PM)
Minimum temperature yesterday: 48 °F (at 7:15 AM)
Average temperature yesterday: 64 °F

Past Weeks' High & Low Weather Summary

 TemperatureHumidityPressure
High91 °F (Oct 13, 3:55 PM)82% (Oct 24, 7:15 AM)30.10 "Hg (Oct 24, 7:15 AM)
Low46 °F (Oct 22, 5:15 AM)15% (Oct 14, 2:15 PM)29.76 "Hg (Oct 14, 4:15 PM)
Average66 °F55%29.96 "Hg
* Reported Oct 10 9:15 AM — Oct 25 9:35 AM, Visalia, Weather by CustomWeather, © 2014

Note: Actual official high and low records may vary slightly from our data, if they occured in-between our weather recording intervals... More about our weather records

Advertising

Visalia weather history for previous 24 hours

 ConditionsComfort  
Time TempWeatherWind HumidityBarometerVisibility
9:35 AM
Oct 25
63 °FSunny.5 mph59%30.07 "Hg6 mi
9:15 AM59 °FSunny.No wind63%30.07 "Hg10 mi
8:55 AM57 °FSunny.No wind67%30.06 "Hg10 mi
8:35 AM55 °FSunny.5 mph67%30.05 "Hg10 mi
8:15 AM54 °FSunny.6 mph67%30.04 "Hg10 mi
7:55 AM52 °FClear.5 mph62%30.02 "Hg10 mi
7:35 AM52 °FClear.6 mph62%30.01 "Hg10 mi
7:15 AM52 °FClear.6 mph67%30.01 "Hg10 mi
6:55 AM52 °FClear.7 mph67%30.00 "Hg10 mi
6:35 AM52 °FClear.6 mph72%30.00 "Hg10 mi
6:15 AM52 °FClear.No wind72%30.00 "Hg10 mi
5:55 AM52 °FClear.5 mph67%30.00 "Hg10 mi
5:35 AM54 °FClear.5 mph67%29.98 "Hg10 mi
4:55 AM54 °FClear.7 mph67%29.98 "Hg10 mi
4:35 AM54 °FClear.5 mph67%29.98 "Hg10 mi
4:15 AM54 °FClear.5 mph67%29.97 "Hg10 mi
3:55 AM55 °FClear.6 mph67%29.96 "Hg10 mi
3:35 AM55 °FClear.No wind67%29.96 "Hg9 mi
3:15 AM54 °FClear.No wind67%29.95 "Hg8 mi
2:55 AM54 °FClear.5 mph67%29.95 "Hg8 mi
2:35 AM55 °FClear.5 mph67%29.95 "Hg9 mi
2:15 AM55 °FClear.3 mph67%29.95 "Hg8 mi
1:55 AM55 °FClear.No wind67%29.95 "Hg8 mi
1:35 AM57 °FClear.6 mph67%29.95 "Hg7 mi
12:55 AM57 °FClear.6 mph67%29.95 "Hg7 mi
12:35 AM57 °FClear.7 mph63%29.95 "Hg7 mi
12:15 AM61 °FClear.7 mph59%29.95 "Hg7 mi
11:55 PM
Oct 24
61 °FClear.3 mph63%29.96 "Hg6 mi
11:35 PM59 °FClear.5 mph63%29.95 "Hg7 mi
10:55 PM63 °FClear.5 mph56%29.94 "Hg8 mi
10:35 PM63 °FClear.5 mph56%29.94 "Hg7 mi
10:15 PM63 °FClear.5 mph56%29.94 "Hg7 mi
9:55 PM63 °FClear.7 mph52%29.94 "Hg8 mi
9:35 PM64 °FClear.7 mph52%29.93 "Hg8 mi
9:15 PM64 °FClear.5 mph49%29.92 "Hg8 mi
8:55 PM64 °FClear.3 mph52%29.91 "Hg8 mi
8:35 PM66 °FClear.3 mph49%29.90 "Hg7 mi
7:55 PM70 °FClear.No wind43%29.90 "Hg9 mi
7:35 PM70 °FClear.5 mph46%29.89 "Hg10 mi
7:15 PM70 °FClear.5 mph43%29.89 "Hg10 mi
6:55 PM72 °FSunny.6 mph44%29.88 "Hg10 mi
6:35 PM72 °FSunny.7 mph38%29.87 "Hg10 mi
6:15 PM79 °FSunny.No wind28%29.86 "Hg10 mi
5:55 PM82 °FSunny.No wind26%29.86 "Hg10 mi
5:35 PM84 °FSunny.No wind23%29.86 "Hg10 mi
4:55 PM84 °FSunny.3 mph23%29.87 "Hg10 mi
4:35 PM84 °FSunny.No wind25%29.88 "Hg10 mi
4:15 PM84 °FSunny.No wind27%29.88 "Hg10 mi
3:55 PM82 °FSunny.No wind30%29.89 "Hg10 mi
3:35 PM84 °FSunny.No wind33%29.89 "Hg9 mi
3:15 PM84 °FSunny.No wind35%29.89 "Hg8 mi
2:55 PM82 °FSunny.No wind35%29.89 "Hg8 mi
2:35 PM81 °FSunny.No wind37%29.90 "Hg8 mi
2:15 PM81 °FSunny.No wind37%29.91 "Hg9 mi
1:55 PM79 °FSunny.No wind42%29.92 "Hg8 mi
1:35 PM79 °FSunny.No wind42%29.93 "Hg8 mi
1:15 PM79 °FSunny.No wind42%29.94 "Hg8 mi
12:55 PM75 °FSunny.No wind47%29.95 "Hg9 mi
12:35 PM73 °FSunny.No wind50%29.97 "Hg8 mi
12:15 PM73 °FSunny.No wind50%29.98 "Hg8 mi
11:55 AM70 °FSunny.No wind53%29.99 "Hg9 mi
11:35 AM70 °FSunny.No wind53%29.99 "Hg9 mi
11:15 AM66 °FSunny.5 mph60%30.00 "Hg8 mi
10:55 AM66 °FSunny.5 mph60%30.01 "Hg7 mi
10:35 AM64 °FSunny.No wind64%30.01 "Hg7 mi
10:15 AM63 °FSunny.3 mph64%30.02 "Hg7 mi
Weather by CustomWeather, © 2014

See weather overviewHow to use our weather pages